Temperature
22 20 20 21 21 23 22 22 21 22 23 22 21 21 20 19 19 18 18 17 17 18 18 18 18 18 18 17 17 17 17 17 17 17 17 17 17 17 17 17 16 16 16 16
21 20 21 22 22 22 22 22 21 22 23 22 21 20 20 19 19 18 18 17 17 17 17 17 17 18 17 17 17 17 17 17 17 17 17 17 17 17 17 16 16 16 16 16
21 22 23 23 23 23 23 22 22 22 22 21 21 21 20 19 19 18 18 18 17 17 17 17 17 17 17 17 17 17 17 17 17 17 17 17 17 17 16 16 16 16 16 16
21 22 23 23 23 23 22 23 23 23 21 20 20 20 20 19 18 18 18 18 17 17 17 17 17 17 17 17 17 17 17 17 17 17 17 17 17 17 17 16 16 16 16 15
21 22 23 23 24 24 23 22 22 21 20 19 19 19 19 18 19 18 17 18 18 18 18 18 18 17 17 17 17 17 17 16 17 17 17 17 17 17 17 16 16 16 16 15
22 23 24 23 24 24 23 22 20 17 17 20 20 19 19 18 19 19 18 18 18 18 18 18 18 17 17 17 17 17 17 16 17 17 17 17 17 17 17 17 16 16 16 15
22 22 23 24 24 23 23 20 19 20 18 19 18 18 18 19 19 19 18 18 18 18 18 17 17 17 17 17 17 17 17 17 17 17 17 17 17 17 17 17 16 16 16 16
21 21 22 23 23 22 21 20 20 20 19 19 18 18 19 20 20 20 19 19 18 18 18 18 18 18 18 17 17 17 17 17 17 17 17 17 17 17 17 17 16 16 16 16
20 20 23 24 23 23 21 20 19 18 19 19 18 18 19 20 19 19 18 18 18 18 18 18 18 18 18 18 17 17 17 17 17 17 17 17 17 17 16 16 16 16 16 16
20 21 22 23 23 23 22 19 17 18 19 19 20 19 19 20 19 19 18 18 18 19 19 19 19 18 18 18 18 17 17 17 17 17 17 17 17 17 16 16 16 16 16 16
20 20 21 22 23 22 21 20 18 16 17 18 19 19 19 19 19 19 18 19 19 19 19 19 19 19 18 18 18 18 17 17 17 17 17 17 17 17 17 16 16 16 16 16
19 18 19 20 21 22 21 20 17 19 18 17 17 19 20 19 18 18 18 19 19 20 19 19 19 19 19 18 18 18 17 17 17 17 17 17 17 16 16 16 16 16 16 16
19 17 19 20 20 20 21 19 18 17 16 15 17 20 20 18 18 18 19 19 19 19 19 19 19 19 19 19 18 18 18 18 17 17 17 17 17 16 17 17 17 16 16 16
18 17 18 19 19 19 20 20 18 17 17 16 17 19 20 19 18 18 18 19 19 19 19 19 19 19 19 19 18 18 18 18 18 17 17 17 17 17 17 17 17 16 16 16
17 17 18 18 19 19 19 20 19 18 18 18 19 19 19 18 18 18 18 19 19 19 19 19 19 19 19 19 19 18 18 18 17 17 17 17 17 17 17 17 16 16 16 16
15 17 18 18 19 19 20 20 20 19 19 19 20 19 18 18 18 18 18 18 18 18 19 19 19 19 19 19 18 18 18 18 18 17 17 17 17 17 17 16 16 16 16 16
15 16 17 17 18 19 19 19 20 20 19 19 19 19 17 17 17 17 17 18 18 18 18 18 18 18 18 18 18 18 18 18 17 17 17 17 16 16 16 16 16 16 16 16
14 14 14 15 17 18 18 19 19 19 19 18 18 18 17 16 16 16 17 18 17 18 18 18 18 18 18 18 18 17 17 17 17 17 16 16 16 16 16 15 15 15 15 15
13 13 13 13 15 17 18 18 18 18 18 18 17 16 15 15 15 15 16 17 17 17 17 17 17 17 17 17 17 17 16 16 16 16 16 15 15 15 15 15 15 14 14 14
12 12 13 13 15 16 17 18 17 18 18 17 16 15 15 16 16 14 14 16 16 16 17 16 16 16 16 16 16 16 16 15 15 15 14 14 14 14 14 14 14 13 13 13
13 13 13 13 14 15 16 16 17 18 18 16 16 15 15 15 15 14 14 15 15 15 15 15 16 15 15 15 15 15 15 14 14 14 14 13 13 13 13 13 13 12 12 12
13 13 13 13 14 15 16 16 16 16 16 16 15 15 15 14 14 13 14 14 14 14 14 15 15 14 14 14 14 14 13 13 13 13 13 12 12 12 12 12 12 11 11 11
12 12 12 13 13 14 14 14 15 15 15 15 15 15 14 13 12 12 13 13 13 13 13 13 14 13 13 13 13 13 12 12 12 12 12 12 12 11 11 11 11 11 10 10
12 12 12 12 13 13 14 14 15 15 15 15 15 15 14 13 12 12 12 12 12 12 12 12 13 12 12 12 12 12 11 11 11 11 11 11 11 11 10 10 10 10 9 9
12 12 12 12 13 13 14 14 14 14 14 14 14 14 14 13 12 12 12 12 12 12 12 12 12 11 11 11 11 11 11 11 11 11 10 10 10 10 10 10 9 9 9 8
12 12 12 13 13 12 13 14 14 14 14 14 13 13 13 13 12 11 11 11 11 11 11 11 11 11 11 11 11 10 10 10 11 10 10 10 9 9 9 9 8 8 8 7
Wind_Speed
3 3 5 7 7 6 5 5 10 11 6 2 4 3 2 4 6 7 7 7 8 8 5 5 7 7 7 8 8 8 8 8 8 6 5 5 4 3 3 3 6 7 8 9
2 6 10 7 6 5 5 7 8 9 4 2 3 3 2 3 5 6 7 8 9 7 5 6 6 7 8 9 9 9 9 9 9 7 5 4 4 3 3 2 4 6 8 8
10 8 4 5 4 4 5 5 7 7 4 4 3 4 2 0 0 2 5 6 6 9 10 9 8 7 8 9 10 10 10 9 8 7 6 5 5 4 3 2 2 3 6 7
7 8 6 6 6 4 7 6 5 3 1 4 3 4 5 2 2 4 6 6 7 7 7 8 8 8 9 9 8 9 9 8 8 9 9 9 6 5 5 4 3 3 5 6
9 6 7 8 8 7 7 1 2 2 2 2 3 1 7 1 3 6 7 8 9 8 9 9 9 8 8 8 9 8 9 8 8 9 11 10 6 5 4 4 5 3 2 4
8 5 6 8 5 5 3 5 6 5 5 2 2 1 7 4 6 5 7 8 8 9 9 7 6 6 6 6 7 8 10 9 9 10 10 10 9 8 7 6 6 4 2 2
7 7 6 5 2 1 4 5 4 5 5 5 2 2 9 7 6 6 8 10 9 9 9 9 8 8 7 7 8 9 10 10 9 10 10 10 10 10 9 8 7 6 4 3
5 8 5 6 9 7 6 9 7 5 5 6 2 5 8 5 4 4 5 7 9 9 9 9 10 9 9 8 9 9 10 10 10 10 9 9 9 7 6 7 7 7 6 5
8 7 5 3 4 9 7 5 7 7 3 2 6 7 9 2 1 2 3 6 9 10 10 10 9 9 8 9 9 10 10 9 10 10 9 9 8 8 8 7 6 5 5 4
10 6 5 2 3 1 5 9 6 6 5 4 6 5 5 6 5 4 5 6 7 8 9 9 9 8 8 8 8 8 9 9 8 9 9 9 8 8 8 7 7 7 6 5
6 7 5 1 6 7 5 5 5 5 5 6 4 8 7 9 7 8 8 7 7 8 9 9 8 8 8 7 8 8 8 8 8 9 8 8 8 8 7 7 7 7 6 7
3 5 4 6 4 3 6 8 9 6 6 6 5 9 6 6 5 6 6 7 6 7 7 7 8 8 8 8 9 9 9 9 9 9 8 8 7 7 7 7 6 6 7 7
3 5 2 6 5 3 2 4 5 5 5 6 5 8 3 2 3 4 5 6 5 6 6 6 6 7 8 8 9 9 9 9 8 8 8 8 7 7 7 7 5 5 6 5
4 4 6 7 7 3 4 4 5 7 5 7 8 8 6 3 5 5 6 6 6 6 7 6 6 6 6 6 7 8 8 8 8 8 9 8 7 7 6 5 5 5 5 5
4 2 5 6 7 5 6 7 7 8 9 9 9 9 10 7 8 7 7 7 7 7 7 7 6 5 5 5 6 6 7 7 8 9 8 7 6 5 5 4 4 4 4 4
2 3 2 4 6 6 6 8 9 9 7 7 5 8 7 3 6 6 8 9 8 7 7 7 7 7 6 6 6 6 6 6 7 7 6 5 5 5 4 3 3 3 3 2
2 4 3 5 5 2 7 9 9 7 7 8 9 9 4 5 7 7 7 8 9 8 7 7 7 6 6 6 6 7 6 6 7 6 6 6 6 5 4 4 4 3 3 3
6 5 4 3 1 8 9 4 6 6 6 7 6 4 6 7 6 6 5 7 8 8 8 7 6 6 5 6 6 7 8 8 8 8 7 6 6 6 5 5 4 4 3 4
7 7 4 4 5 7 6 3 4 5 6 5 7 6 7 11 8 5 5 7 8 8 8 7 6 7 7 8 9 11 11 10 10 9 8 7 7 7 7 6 5 5 5 6
3 4 4 4 5 7 8 3 1 3 5 4 7 9 11 10 7 5 6 10 10 10 10 10 10 10 10 9 11 13 12 11 10 9 8 8 8 8 8 7 6 6 7 7
1 1 4 6 6 7 5 3 1 5 7 3 6 8 9 4 5 11 12 12 11 11 11 12 12 10 9 9 12 14 12 10 8 9 10 10 9 9 8 8 7 7 8 8
4 3 4 4 5 8 3 1 4 5 2 3 5 6 7 11 16 16 14 14 14 13 12 13 13 11 9 9 13 14 11 8 9 10 11 10 8 8 8 9 8 7 8 8
5 6 4 6 7 5 3 5 5 3 2 2 5 9 14 16 16 16 14 14 14 13 12 11 13 13 11 9 11 13 8 8 10 12 11 9 9 9 8 8 8 7 6 6
4 3 3 5 7 5 5 4 3 2 2 4 8 12 15 17 17 16 15 14 13 13 12 12 13 14 11 10 10 10 8 9 11 11 9 8 8 8 8 7 6 6 5 5
5 3 3 5 5 5 4 3 0 3 7 9 11 12 15 19 17 16 15 14 13 12 11 11 12 13 11 10 10 8 8 10 11 9 8 7 7 7 7 7 6 5 4 3
3 4 4 4 3 3 2 2 4 7 9 11 14 14 14 17 18 16 14 12 13 12 11 12 12 12 10 10 10 8 6 8 10 8 7 6 5 6 6 7 7 11 8 9
Wind_Direction
125 106 223 223 204 221 255 270 283 283 295 300 279 278 257 172 175 178 180 180 189 197 183 168 170 169 165 165 162 162 158 159 152 147 146 144 148 140 130 135 143 144 143 144
54 250 234 215 217 227 247 279 284 296 345 16 324 308 254 190 202 195 191 191 192 183 175 179 178 172 175 175 171 163 165 164 166 162 153 144 132 129 124 123 129 143 144 146
199 233 205 204 254 286 284 247 261 276 327 22 4 325 290 271 193 191 192 194 197 190 185 184 185 188 182 181 178 173 168 166 163 149 130 117 96 88 102 122 130 145 152 149
228 247 233 247 257 226 275 257 243 267 346 312 9 295 289 250 251 217 207 200 203 197 186 183 184 185 186 183 173 169 167 163 160 153 153 156 157 160 173 161 152 144 148 148
227 213 198 221 231 197 228 335 66 62 122 348 2 224 291 292 246 231 219 208 203 196 189 187 186 186 185 176 170 171 168 166 166 163 165 163 158 153 141 138 143 142 131 145
242 229 206 215 222 190 171 67 52 51 65 331 295 205 281 242 230 229 213 204 198 195 190 184 175 169 174 170 170 168 167 169 169 167 169 168 162 154 149 154 157 153 145 149
278 268 235 203 250 313 124 94 18 350 358 265 274 240 253 247 224 214 210 204 197 192 184 177 171 173 175 174 178 176 173 174 173 172 175 172 168 165 167 169 171 165 170 186
224 280 249 200 195 195 177 149 164 211 236 279 301 248 256 252 241 224 206 190 183 187 185 182 180 179 178 178 178 174 176 179 177 177 177 170 168 170 174 175 173 179 188 193
193 249 288 236 187 153 146 172 163 140 161 272 281 282 300 242 204 183 178 174 176 181 184 184 181 179 177 178 181 177 175 176 177 178 171 171 172 174 177 178 178 183 188 187
173 237 277 280 104 74 150 145 111 129 157 246 285 278 255 254 223 194 187 187 182 174 180 183 183 182 181 179 174 169 171 175 173 175 176 181 178 180 178 173 182 189 193 189
159 197 281 7 192 191 127 125 122 128 157 169 242 268 229 224 208 192 193 190 178 176 182 185 184 182 174 166 166 171 173 169 170 176 177 175 176 178 175 184 194 195 197 195
141 144 249 258 254 202 178 176 154 164 212 185 191 263 266 218 200 181 181 179 174 175 178 176 175 170 169 172 174 177 177 178 178 174 172 176 172 173 180 193 198 195 202 204
123 113 34 342 343 1 166 172 165 137 131 162 181 261 295 145 158 167 161 158 160 163 164 161 160 167 175 178 177 178 180 182 173 166 171 175 177 181 187 194 194 192 200 204
115 125 169 204 227 239 253 213 163 141 162 196 215 242 274 228 191 179 164 156 154 156 157 158 162 165 169 170 171 173 176 172 167 167 172 182 187 186 187 189 186 192 196 199
91 168 219 238 248 235 234 240 203 198 196 194 224 223 245 224 196 183 165 152 149 152 155 162 162 157 152 153 159 166 169 169 169 169 175 182 177 172 174 177 184 188 193 205
74 180 218 269 249 238 246 244 224 224 214 216 229 246 246 188 149 159 161 157 157 157 158 157 152 150 156 160 160 156 156 158 156 160 167 159 151 150 154 156 156 153 152 152
194 170 180 256 272 276 248 224 206 207 204 186 208 229 169 163 167 166 162 157 155 151 144 144 145 147 150 152 151 151 141 129 132 137 135 137 137 133 135 136 127 124 117 108
175 167 180 228 253 233 239 226 198 203 222 203 210 204 172 156 123 96 116 140 138 135 130 128 122 118 114 114 119 118 115 117 116 110 108 114 121 121 118 114 108 100 99 98
181 165 171 181 221 265 281 241 182 184 242 210 188 165 139 125 100 72 74 108 119 120 115 110 107 105 102 107 113 109 104 103 103 102 102 102 106 105 99 97 94 93 92 84
115 142 162 179 204 233 243 240 217 126 258 214 168 161 156 145 149 164 121 110 107 105 104 103 99 95 95 99 106 103 101 98 98 99 96 92 94 98 96 93 88 84 88 85
47 145 196 208 227 257 262 294 115 175 235 192 169 162 159 163 145 129 121 108 104 101 100 99 96 91 89 96 100 97 93 90 92 92 88 84 85 89 91 86 82 85 85 81
207 209 214 193 210 248 295 328 203 232 291 156 152 141 127 118 118 123 121 115 110 105 100 98 96 87 76 85 97 94 88 86 87 86 83 79 78 84 88 87 82 82 87 83
212 205 208 207 225 256 271 250 272 266 242 176 142 132 132 128 129 126 122 116 111 108 102 99 101 92 77 73 92 98 94 93 90 84 79 77 75 73 76 85 87 83 81 86
261 202 219 262 266 276 287 284 285 249 202 143 133 135 135 131 131 127 122 116 113 110 107 106 103 99 90 81 83 92 95 92 90 86 80 77 79 75 68 69 75 84 85 90
253 222 226 254 280 312 315 318 55 101 112 117 120 126 130 129 127 125 121 118 115 110 106 104 104 101 97 92 86 86 91 96 93 90 89 85 83 87 79 70 61 72 69 98
239 212 214 239 245 232 292 9 100 113 117 120 119 117 118 123 124 120 118 117 115 112 107 105 102 100 98 94 87 80 84 97 100 94 87 86 86 85 89 88 72 51 61 64
Height
1489 1495 1500 1497 1495 1495 1498 1501 1502 1491 1481 1482 1483 1482 1480 1480 1481 1482 1483 1484 1486 1488 1490 1492 1495 1498 1500 1504 1507 1511 1516 1520 1524 1528 1532 1536 1539 1542 1544 1547 1549 1551 1552 1553
1494 1496 1489 1488 1489 1492 1496 1500 1498 1487 1480 1482 1485 1484 1480 1480 1480 1480 1481 1483 1485 1487 1489 1491 1493 1496 1499 1502 1506 1509 1513 1518 1523 1527 1531 1535 1538 1541 1544 1546 1549 1550 1552 1553
1493 1487 1482 1485 1488 1491 1493 1496 1494 1491 1484 1484 1487 1488 1483 1480 1480 1481 1481 1482 1484 1485 1486 1489 1491 1494 1497 1500 1504 1507 1512 1516 1521 1526 1530 1533 1537 1540 1543 1545 1547 1550 1551 1553
1488 1481 1482 1484 1486 1487 1494 1484 1484 1486 1493 1499 1495 1504 1488 1483 1481 1480 1480 1481 1482 1484 1485 1488 1490 1492 1495 1499 1502 1506 1510 1515 1520 1524 1528 1532 1535 1538 1541 1544 1547 1549 1551 1552
1483 1477 1479 1482 1480 1480 1483 1480 1483 1487 1494 1500 1499 1503 1495 1484 1483 1479 1478 1478 1480 1482 1484 1486 1489 1491 1494 1497 1501 1505 1509 1514 1518 1523 1527 1531 1534 1538 1541 1544 1546 1548 1550 1551
1475 1472 1472 1473 1471 1473 1476 1483 1489 1497 1503 1510 1501 1504 1499 1487 1479 1475 1475 1476 1478 1480 1482 1485 1488 1491 1493 1496 1499 1503 1507 1512 1517 1521 1525 1529 1533 1537 1540 1543 1545 1547 1549 1551
1479 1472 1468 1468 1473 1474 1478 1495 1513 1513 1520 1514 1501 1502 1496 1474 1470 1470 1470 1472 1475 1478 1480 1483 1486 1489 1492 1495 1497 1501 1505 1510 1515 1519 1523 1527 1532 1536 1539 1542 1544 1546 1549 1550
1488 1486 1467 1464 1468 1476 1479 1489 1510 1519 1521 1513 1502 1502 1483 1468 1467 1467 1467 1469 1472 1475 1478 1482 1485 1488 1491 1494 1497 1500 1504 1508 1513 1517 1521 1526 1530 1534 1538 1541 1543 1546 1548 1550
1486 1484 1464 1460 1460 1466 1479 1486 1486 1504 1509 1514 1506 1494 1476 1465 1466 1466 1467 1468 1470 1473 1476 1480 1484 1487 1490 1493 1496 1500 1503 1507 1512 1516 1520 1524 1528 1532 1536 1539 1542 1545 1547 1549
1471 1479 1466 1460 1460 1463 1467 1478 1493 1504 1515 1516 1504 1497 1488 1470 1467 1466 1466 1467 1469 1472 1476 1479 1483 1486 1490 1493 1497 1500 1503 1507 1511 1515 1519 1523 1527 1531 1534 1538 1541 1543 1546 1548
1466 1476 1471 1465 1465 1469 1473 1479 1486 1499 1501 1512 1513 1498 1467 1463 1462 1463 1464 1466 1468 1471 1475 1478 1482 1485 1489 1493 1496 1499 1503 1506 1510 1514 1518 1521 1525 1529 1532 1535 1539 1542 1544 1546
1466 1475 1480 1471 1461 1459 1463 1470 1481 1493 1498 1502 1505 1492 1456 1457 1457 1460 1462 1464 1467 1470 1474 1477 1481 1484 1488 1491 1495 1498 1502 1505 1509 1513 1517 1520 1523 1527 1530 1533 1536 1539 1541 1543
1465 1476 1485 1481 1475 1466 1465 1467 1472 1480 1491 1502 1502 1485 1456 1455 1457 1458 1461 1463 1466 1470 1473 1476 1479 1483 1486 1490 1493 1497 1501 1504 1508 1512 1515 1518 1521 1525 1528 1531 1534 1536 1539 1540
1462 1473 1480 1484 1478 1469 1468 1466 1470 1477 1489 1493 1487 1473 1458 1456 1457 1457 1459 1462 1465 1468 1471 1475 1478 1481 1485 1488 1492 1496 1499 1503 1507 1510 1514 1516 1520 1523 1526 1529 1531 1533 1535 1537
1462 1471 1469 1468 1464 1464 1464 1463 1465 1469 1470 1476 1469 1467 1456 1452 1453 1455 1458 1461 1464 1467 1470 1473 1476 1480 1483 1487 1490 1494 1498 1501 1505 1508 1512 1515 1518 1521 1524 1526 1528 1530 1532 1533
1464 1469 1469 1467 1460 1460 1460 1457 1457 1459 1460 1462 1460 1458 1447 1448 1451 1454 1456 1459 1462 1466 1468 1472 1475 1478 1481 1485 1488 1492 1496 1500 1503 1507 1510 1513 1516 1519 1521 1523 1526 1527 1528 1530
1467 1470 1473 1474 1463 1460 1463 1452 1451 1451 1449 1452 1456 1449 1446 1448 1449 1451 1455 1457 1461 1464 1468 1471 1474 1477 1480 1484 1487 1490 1494 1498 1501 1504 1508 1511 1514 1516 1519 1521 1522 1524 1525 1526
1466 1470 1474 1475 1469 1474 1453 1440 1440 1442 1442 1442 1442 1442 1443 1445 1449 1452 1454 1457 1460 1463 1467 1470 1474 1477 1480 1483 1487 1490 1493 1497 1500 1502 1506 1509 1511 1514 1516 1518 1519 1521 1522 1523
1460 1466 1473 1477 1474 1463 1449 1440 1439 1442 1442 1438 1439 1440 1443 1446 1449 1454 1455 1458 1460 1463 1467 1470 1474 1477 1480 1483 1486 1489 1492 1495 1498 1501 1504 1507 1510 1512 1514 1516 1517 1518 1519 1519
1460 1462 1469 1473 1471 1468 1449 1438 1436 1438 1443 1435 1435 1438 1441 1444 1451 1454 1456 1458 1462 1464 1467 1471 1475 1478 1480 1483 1486 1489 1492 1495 1498 1501 1504 1507 1509 1512 1513 1514 1515 1516 1517 1517
1463 1465 1467 1468 1467 1455 1441 1437 1437 1447 1441 1433 1434 1436 1439 1441 1445 1451 1454 1458 1462 1466 1469 1472 1476 1479 1482 1485 1488 1490 1493 1497 1500 1503 1505 1507 1510 1512 1513 1514 1515 1516 1516 1517
1462 1464 1464 1465 1465 1457 1438 1437 1439 1436 1432 1431 1433 1435 1439 1441 1445 1450 1455 1458 1463 1468 1472 1475 1478 1481 1485 1489 1491 1493 1496 1499 1503 1505 1507 1509 1511 1512 1514 1515 1516 1516 1517 1517
1457 1456 1455 1455 1451 1441 1437 1436 1434 1433 1431 1431 1432 1435 1439 1442 1447 1451 1456 1459 1465 1470 1474 1478 1481 1484 1489 1493 1495 1496 1500 1503 1505 1507 1509 1511 1513 1514 1515 1516 1516 1516 1517 1517
1451 1448 1450 1448 1440 1437 1435 1433 1432 1431 1431 1431 1433 1436 1439 1443 1449 1454 1458 1463 1468 1473 1477 1482 1485 1487 1492 1496 1499 1501 1504 1506 1508 1509 1511 1513 1514 1515 1516 1517 1517 1517 1517 1517
1448 1446 1445 1443 1438 1435 1432 1432 1431 1430 1431 1433 1435 1438 1441 1445 1452 1457 1461 1467 1472 1477 1481 1485 1488 1491 1496 1500 1502 1505 1507 1510 1511 1512 1514 1515 1516 1517 1517 1518 1518 1518 1518 1518
1443 1442 1442 1440 1436 1436 1434 1432 1432 1432 1433 1435 1438 1442 1446 1449 1454 1460 1466 1471 1476 1481 1485 1489 1493 1496 1500 1503 1505 1508 1511 1513 1513 1514 1515 1517 1517 1518 1518 1518 1518 1518 1518 1517